| time (UTC) | temp F | wind direction | speed MPH | gust MPH | rain 1hr in | rain 24hr in | rain mn in | humidity % | barometer mb |
| 20260509100706 | 58 | 324 | 0.0 | 2.0 | 0.00 | 0.00 | 0.00 | 37 | 1011.7 |
| 20260509100157 | 58 | 289 | 0.0 | 0.0 | 0.00 | 0.00 | 0.00 | 39 | 1011.7 |
| 20260509095645 | 58 | 283 | 0.0 | 0.0 | 0.00 | 0.00 | 0.00 | 39 | 1011.6 |
| 20260509095145 | 58 | 337 | 0.0 | 0.0 | 0.00 | 0.00 | 0.00 | 39 | 1011.5 |
| 20260509094632 | 58 | 288 | 0.0 | 0.0 | 0.00 | 0.00 | 0.00 | 40 | 1011.5 |
| 20260509093445 | 58 | 270 | 0.0 | 0.0 | 0.00 | 0.00 | 0.00 | 40 | 1011.4 |
| 20260509092941 | 58 | 280 | 0.0 | 0.0 | 0.00 | 0.00 | 0.00 | 41 | 1011.4 |
| 20260509092428 | 58 | 279 | 0.0 | 0.0 | 0.00 | 0.00 | 0.00 | 41 | 1011.3 |
| 20260509091926 | 58 | 276 | 0.0 | 0.0 | 0.00 | 0.00 | 0.00 | 42 | 1011.3 |
| 20260509091418 | 59 | 284 | 0.0 | 0.0 | 0.00 | 0.00 | 0.00 | 42 | 1011.2 |
| 20260509090928 | 59 | 284 | 0.0 | 0.0 | 0.00 | 0.00 | 0.00 | 43 | 1011.2 |
| 20260509090414 | 59 | 279 | 0.0 | 0.0 | 0.00 | 0.00 | 0.00 | 43 | 1011.0 |
| 20260509085254 | 60 | 298 | 0.0 | 0.0 | 0.00 | 0.00 | 0.00 | 43 | 1010.9 |
| 20260509084739 | 60 | 318 | 0.0 | 1.0 | 0.00 | 0.00 | 0.00 | 43 | 1010.9 |
| 20260509084234 | 60 | 312 | 0.0 | 1.0 | 0.00 | 0.00 | 0.00 | 44 | 1010.8 |
| 20260509083727 | 60 | 320 | 0.0 | 1.0 | 0.00 | 0.00 | 0.00 | 44 | 1010.7 |
| 20260509083219 | 60 | 287 | 0.0 | 0.0 | 0.00 | 0.00 | 0.00 | 44 | 1010.7 |
| 20260509082722 | 60 | 305 | 0.0 | 1.0 | 0.00 | 0.00 | 0.00 | 44 | 1010.7 |
| 20260509082224 | 60 | 293 | 0.0 | 0.0 | 0.00 | 0.00 | 0.00 | 44 | 1010.7 |
| 20260509081722 | 61 | 289 | 0.0 | 0.0 | 0.00 | 0.00 | 0.00 | 44 | 1010.5 |
| 20260509081223 | 61 | 313 | 0.0 | 0.0 | 0.00 | 0.00 | 0.00 | 43 | 1010.5 |
| 20260509080732 | 61 | 299 | 0.0 | 0.0 | 0.00 | 0.00 | 0.00 | 41 | 1010.4 |
| 20260509080223 | 61 | 311 | 0.0 | 0.0 | 0.00 | 0.00 | 0.00 | 41 | 1010.5 |
| 20260509075718 | 61 | 319 | 0.0 | 0.0 | 0.00 | 0.00 | 0.00 | 41 | 1010.4 |
| 20260509075212 | 61 | 286 | 0.0 | 0.0 | 0.00 | 0.00 | 0.00 | 41 | 1010.4 |
| 20260509074713 | 61 | 281 | 0.0 | 0.0 | 0.00 | 0.00 | 0.00 | 41 | 1010.3 |
| 20260509072926 | 61 | 280 | 0.0 | 0.0 | 0.00 | 0.00 | 0.00 | 44 | 1010.1 |
| 20260509072422 | 61 | 293 | 0.0 | 1.0 | 0.00 | 0.00 | 0.00 | 45 | 1010.0 |
| 20260509071904 | 60 | 284 | 0.0 | 0.0 | 0.00 | 0.00 | 0.00 | 47 | 1010.0 |
| 20260509071349 | 60 | 277 | 0.0 | 0.0 | 0.00 | 0.00 | 0.00 | 49 | 1010.0 |
| 20260509070834 | 60 | 281 | 0.0 | 0.0 | 0.00 | 0.00 | 0.00 | 51 | 1009.9 |
| 20260509065710 | 60 | 275 | 0.0 | 4.0 | 0.00 | 0.00 | 0.00 | 51 | 1009.8 |
| 20260509065154 | 60 | 287 | 0.0 | 4.0 | 0.00 | 0.00 | 0.00 | 48 | 1009.8 |
| 20260509064653 | 60 | 280 | 0.0 | 0.0 | 0.00 | 0.00 | 0.00 | 46 | 1009.7 |
| 20260509064146 | 60 | 270 | 0.0 | 2.0 | 0.00 | 0.00 | 0.00 | 46 | 1009.6 |
| 20260509063648 | 59 | 276 | 0.0 | 0.0 | 0.00 | 0.00 | 0.00 | 45 | 1009.6 |
| 20260509063136 | 59 | 269 | 0.0 | 0.0 | 0.00 | 0.00 | 0.00 | 45 | 1009.5 |
| 20260509062628 | 60 | 269 | 0.0 | 0.0 | 0.00 | 0.00 | 0.00 | 44 | 1009.5 |
| 20260509061442 | 61 | 268 | 0.0 | 0.0 | 0.00 | 0.00 | 0.00 | 41 | 1009.3 |
| 20260509060943 | 61 | 268 | 0.0 | 0.0 | 0.00 | 0.00 | 0.00 | 40 | 1009.2 |
| 20260509060424 | 61 | 268 | 0.0 | 0.0 | 0.00 | 0.00 | 0.00 | 39 | 1009.2 |
| 20260509055925 | 62 | 268 | 0.0 | 0.0 | 0.00 | 0.00 | 0.00 | 37 | 1009.2 |
| 20260509055435 | 62 | 268 | 0.0 | 0.0 | 0.00 | 0.00 | 0.00 | 37 | 1009.2 |
| 20260509054309 | 62 | 243 | 1.0 | 4.0 | 0.00 | 0.00 | 0.00 | 35 | 1009.3 |
| 20260509053202 | 62 | 261 | 0.0 | 2.0 | 0.00 | 0.00 | 0.00 | 36 | 1009.3 |
| 20260509052039 | 63 | 276 | 0.0 | 0.0 | 0.00 | 0.00 | 0.00 | 36 | 1009.2 |
| 20260509051520 | 63 | 277 | 0.0 | 3.0 | 0.00 | 0.00 | 0.00 | 36 | 1009.3 |
| 20260509051012 | 62 | 256 | 0.0 | 0.0 | 0.00 | 0.00 | 0.00 | 37 | 1009.3 |
| 20260509050459 | 62 | 329 | 0.0 | 3.0 | 0.00 | 0.00 | 0.00 | 38 | 1009.2 |
| 20260509045954 | 61 | 326 | 0.0 | 1.0 | 0.00 | 0.00 | 0.00 | 40 | 1008.8 |
| 20260509044205 | 62 | 308 | 0.0 | 0.0 | 0.00 | 0.00 | 0.00 | 40 | 1008.8 |
| 20260509042454 | 63 | 308 | 0.0 | 0.0 | 0.00 | 0.00 | 0.00 | 36 | 1008.4 |
| 20260509041955 | 64 | 308 | 0.0 | 0.0 | 0.00 | 0.00 | 0.00 | 36 | 1008.4 |
| 20260509041501 | 64 | 308 | 0.0 | 0.0 | 0.00 | 0.00 | 0.00 | 35 | 1008.4 |
| 20260509040943 | 65 | 308 | 0.0 | 0.0 | 0.00 | 0.00 | 0.00 | 34 | 1008.4 |
| 20260509040426 | 65 | 339 | 0.0 | 0.0 | 0.00 | 0.00 | 0.00 | 34 | 1008.4 |
| 20260509035936 | 65 | 351 | 0.0 | 2.0 | 0.00 | 0.00 | 0.00 | 35 | 1008.4 |
| 20260509035425 | 65 | 271 | 0.0 | 0.0 | 0.00 | 0.00 | 0.00 | 34 | 1008.3 |
| 20260509034908 | 65 | 271 | 0.0 | 0.0 | 0.00 | 0.00 | 0.00 | 34 | 1008.3 |
| 20260509034417 | 65 | 271 | 0.0 | 0.0 | 0.00 | 0.00 | 0.00 | 35 | 1008.2 |
| 20260509033918 | 65 | 271 | 0.0 | 0.0 | 0.00 | 0.00 | 0.00 | 34 | 1008.1 |
| 20260509033408 | 65 | 271 | 0.0 | 0.0 | 0.00 | 0.00 | 0.00 | 33 | 1008.1 |
| 20260509032856 | 66 | 271 | 0.0 | 0.0 | 0.00 | 0.00 | 0.00 | 33 | 1008.1 |
| 20260509032339 | 67 | 271 | 0.0 | 0.0 | 0.00 | 0.00 | 0.00 | 31 | 1008.0 |
| 20260509031830 | 67 | 271 | 0.0 | 0.0 | 0.00 | 0.00 | 0.00 | 31 | 1007.9 |
| 20260509031327 | 67 | 282 | 0.0 | 0.0 | 0.00 | 0.00 | 0.00 | 31 | 1007.9 |
| 20260509030202 | 68 | 310 | 0.0 | 0.0 | 0.00 | 0.00 | 0.00 | 30 | 1007.9 |
| 20260509025704 | 68 | 310 | 0.0 | 0.0 | 0.00 | 0.00 | 0.00 | 30 | 1007.8 |
| 20260509025204 | 68 | 310 | 0.0 | 0.0 | 0.00 | 0.00 | 0.00 | 30 | 1007.8 |
| 20260509024657 | 68 | 310 | 0.0 | 0.0 | 0.00 | 0.00 | 0.00 | 30 | 1007.8 |
| 20260509024139 | 69 | 310 | 0.0 | 0.0 | 0.00 | 0.00 | 0.00 | 29 | 1007.7 |
| 20260509023635 | 69 | 310 | 0.0 | 0.0 | 0.00 | 0.00 | 0.00 | 28 | 1007.7 |
| 20260509023136 | 70 | 310 | 0.0 | 0.0 | 0.00 | 0.00 | 0.00 | 28 | 1007.7 |
| 20260509022643 | 70 | 310 | 0.0 | 0.0 | 0.00 | 0.00 | 0.00 | 28 | 1007.6 |
| 20260509022143 | 70 | 310 | 0.0 | 0.0 | 0.00 | 0.00 | 0.00 | 27 | 1007.6 |
| 20260509021627 | 71 | 334 | 0.0 | 0.0 | 0.00 | 0.00 | 0.00 | 25 | 1007.5 |
| 20260509015845 | 73 | 334 | 0.0 | 0.0 | 0.00 | 0.00 | 0.00 | 21 | 1007.5 |
| 20260509014730 | 74 | 334 | 0.0 | 0.0 | 0.00 | 0.00 | 0.00 | 20 | 1007.5 |
| 20260509013610 | 75 | 336 | 0.0 | 0.0 | 0.00 | 0.00 | 0.00 | 20 | 1007.5 |
| 20260509012429 | 76 | 327 | 0.0 | 0.0 | 0.00 | 0.00 | 0.00 | 19 | 1007.5 |
| 20260509011913 | 76 | 327 | 0.0 | 2.0 | 0.00 | 0.00 | 0.00 | 19 | 1007.6 |
| 20260509011400 | 76 | 331 | 0.0 | 2.0 | 0.00 | 0.00 | 0.00 | 20 | 1007.7 |
| 20260509010843 | 76 | 341 | 0.0 | 1.0 | 0.00 | 0.00 | 0.00 | 19 | 1007.8 |
| 20260509010334 | 76 | 333 | 1.0 | 5.0 | 0.00 | 0.00 | 0.00 | 19 | 1007.8 |
| 20260509005823 | 76 | 326 | 1.0 | 5.0 | 0.00 | 0.00 | 0.00 | 20 | 1007.8 |
| 20260509004647 | 77 | 351 | 1.0 | 6.0 | 0.00 | 0.00 | 0.00 | 20 | 1007.9 |
| 20260509003514 | 77 | 333 | 0.0 | 4.0 | 0.00 | 0.00 | 0.00 | 19 | 1008.0 |
| 20260509003021 | 77 | 310 | 0.0 | 8.0 | 0.00 | 0.00 | 0.00 | 19 | 1008.0 |
| 20260509002508 | 76 | 267 | 2.0 | 8.0 | 0.00 | 0.00 | 0.00 | 20 | 1008.1 |
| 20260509001345 | 77 | 329 | 0.0 | 3.0 | 0.00 | 0.00 | 0.00 | 20 | 1008.2 |
| 20260509000834 | 77 | 4 | 1.0 | 6.0 | 0.00 | 0.00 | 0.00 | 19 | 1008.2 |
| 20260509000326 | 77 | 335 | 1.0 | 10.0 | 0.00 | 0.00 | 0.00 | 19 | 1008.3 |
| 20260508235807 | 77 | 278 | 2.0 | 10.0 | 0.00 | 0.00 | 0.00 | 20 | 1008.4 |
| 20260508235248 | 77 | 336 | 3.0 | 10.0 | 0.00 | 0.00 | 0.00 | 19 | 1008.4 |
| 20260508234757 | 77 | 307 | 3.0 | 10.0 | 0.00 | 0.00 | 0.00 | 19 | 1008.4 |
| 20260508234247 | 77 | 333 | 2.0 | 8.0 | 0.00 | 0.00 | 0.00 | 19 | 1008.5 |
| 20260508233746 | 77 | 339 | 1.0 | 8.0 | 0.00 | 0.00 | 0.00 | 19 | 1008.4 |
| 20260508231936 | 78 | 35 | 1.0 | 7.0 | 0.00 | 0.00 | 0.00 | 18 | 1008.6 |
| 20260508231422 | 78 | 255 | 1.0 | 7.0 | 0.00 | 0.00 | 0.00 | 19 | 1008.6 |
| 20260508230907 | 77 | 340 | 2.0 | 7.0 | 0.00 | 0.00 | 0.00 | 19 | 1008.8 |
| 20260508230411 | 78 | 325 | 2.0 | 7.0 | 0.00 | 0.00 | 0.00 | 19 | 1008.8 |
| 20260508225921 | 77 | 315 | 2.0 | 8.0 | 0.00 | 0.00 | 0.00 | 20 | 1008.9 |
| 20260508225420 | 77 | 321 | 3.0 | 8.0 | 0.00 | 0.00 | 0.00 | 19 | 1009.0 |
| 20260508224904 | 77 | 348 | 3.0 | 11.0 | 0.00 | 0.00 | 0.00 | 20 | 1009.1 |
| 20260508223739 | 77 | 343 | 4.0 | 11.0 | 0.00 | 0.00 | 0.00 | 19 | 1009.3 |
| 20260508223240 | 77 | 300 | 5.0 | 11.0 | 0.00 | 0.00 | 0.00 | 20 | 1009.5 |
| 20260508222748 | 76 | 315 | 5.0 | 10.0 | 0.00 | 0.00 | 0.00 | 19 | 1009.5 |
| 20260508222254 | 77 | 354 | 5.0 | 10.0 | 0.00 | 0.00 | 0.00 | 20 | 1009.5 |
| 20260508221757 | 76 | 339 | 4.0 | 10.0 | 0.00 | 0.00 | 0.00 | 20 | 1009.6 |
| 20260508221303 | 76 | 317 | 4.0 | 11.0 | 0.00 | 0.00 | 0.00 | 20 | 1009.7 |
| 20260508220744 | 76 | 352 | 4.0 | 11.0 | 0.00 | 0.00 | 0.00 | 20 | 1009.9 |
| 20260508220243 | 76 | 336 | 5.0 | 11.0 | 0.00 | 0.00 | 0.00 | 20 | 1009.8 |
| 20260508215724 | 76 | 345 | 5.0 | 11.0 | 0.00 | 0.00 | 0.00 | 21 | 1009.8 |
| 20260508215207 | 76 | 341 | 5.0 | 13.0 | 0.00 | 0.00 | 0.00 | 21 | 1009.8 |
| 20260508214648 | 76 | 0 | 4.0 | 13.0 | 0.00 | 0.00 | 0.00 | 20 | 1010.0 |
| 20260508214141 | 76 | 343 | 4.0 | 13.0 | 0.00 | 0.00 | 0.00 | 21 | 1010.0 |
| 20260508213648 | 75 | 351 | 5.0 | 13.0 | 0.00 | 0.00 | 0.00 | 21 | 1010.1 |
| 20260508213131 | 76 | 328 | 5.0 | 12.0 | 0.00 | 0.00 | 0.00 | 20 | 1010.1 |
| 20260508212626 | 76 | 95 | 4.0 | 11.0 | 0.00 | 0.00 | 0.00 | 21 | 1010.2 |
| 20260508212129 | 76 | 342 | 3.0 | 11.0 | 0.00 | 0.00 | 0.00 | 21 | 1010.3 |
| 20260508211635 | 76 | 357 | 3.0 | 11.0 | 0.00 | 0.00 | 0.00 | 20 | 1010.3 |
| 20260508211141 | 76 | 313 | 4.0 | 10.0 | 0.00 | 0.00 | 0.00 | 22 | 1010.3 |
| 20260508210623 | 75 | 322 | 5.0 | 13.0 | 0.00 | 0.00 | 0.00 | 21 | 1010.4 |
| 20260508210132 | 75 | 338 | 5.0 | 13.0 | 0.00 | 0.00 | 0.00 | 20 | 1010.5 |
| 20260508205630 | 75 | 4 | 5.0 | 13.0 | 0.00 | 0.00 | 0.00 | 20 | 1010.5 |
| 20260508205112 | 75 | 12 | 5.0 | 13.0 | 0.00 | 0.00 | 0.00 | 20 | 1010.7 |
| 20260508203939 | 75 | 342 | 4.0 | 12.0 | 0.00 | 0.00 | 0.00 | 22 | 1010.9 |
| 20260508202754 | 74 | 30 | 3.0 | 13.0 | 0.00 | 0.00 | 0.00 | 22 | 1011.0 |
| 20260508202238 | 74 | 323 | 5.0 | 13.0 | 0.00 | 0.00 | 0.00 | 21 | 1011.0 |
| 20260508201746 | 74 | 341 | 5.0 | 13.0 | 0.00 | 0.00 | 0.00 | 20 | 1011.1 |
| 20260508195939 | 74 | 344 | 5.0 | 12.0 | 0.00 | 0.00 | 0.00 | 22 | 1011.2 |
| 20260508195424 | 73 | 336 | 4.0 | 12.0 | 0.00 | 0.00 | 0.00 | 22 | 1011.2 |
| 20260508194927 | 74 | 347 | 3.0 | 11.0 | 0.00 | 0.00 | 0.00 | 22 | 1011.3 |
| 20260508194432 | 74 | 324 | 4.0 | 10.0 | 0.00 | 0.00 | 0.00 | 23 | 1011.3 |
| 20260508193935 | 74 | 329 | 4.0 | 10.0 | 0.00 | 0.00 | 0.00 | 22 | 1011.4 |
| 20260508193425 | 74 | 339 | 4.0 | 10.0 | 0.00 | 0.00 | 0.00 | 22 | 1011.3 |
| 20260508192926 | 74 | 352 | 4.0 | 10.0 | 0.00 | 0.00 | 0.00 | 22 | 1011.3 |
| 20260508192418 | 74 | 343 | 4.0 | 9.0 | 0.00 | 0.00 | 0.00 | 23 | 1011.4 |
| 20260508191925 | 74 | 331 | 2.0 | 9.0 | 0.00 | 0.00 | 0.00 | 23 | 1011.4 |
| 20260508191426 | 75 | 322 | 2.0 | 11.0 | 0.00 | 0.00 | 0.00 | 23 | 1011.4 |
| 20260508190258 | 73 | 334 | 4.0 | 11.0 | 0.00 | 0.00 | 0.00 | 24 | 1011.5 |
| 20260508185755 | 73 | 325 | 2.0 | 11.0 | 0.00 | 0.00 | 0.00 | 23 | 1011.6 |
| 20260508184034 | 72 | 346 | 3.0 | 13.0 | 0.00 | 0.00 | 0.00 | 24 | 1011.8 |
| 20260508183536 | 72 | 353 | 3.0 | 15.0 | 0.00 | 0.00 | 0.00 | 24 | 1011.8 |
| 20260508183042 | 71 | 358 | 4.0 | 15.0 | 0.00 | 0.00 | 0.00 | 25 | 1011.9 |
| 20260508182551 | 72 | 315 | 3.0 | 15.0 | 0.00 | 0.00 | 0.00 | 26 | 1012.0 |
| 20260508182055 | 72 | 345 | 2.0 | 15.0 | 0.00 | 0.00 | 0.00 | 26 | 1012.0 |
| 20260508181604 | 72 | 32 | 2.0 | 15.0 | 0.00 | 0.00 | 0.00 | 25 | 1012.0 |
| 20260508180420 | 72 | 341 | 3.0 | 11.0 | 0.00 | 0.00 | 0.00 | 26 | 1012.0 |
| 20260508175919 | 72 | 308 | 2.0 | 10.0 | 0.00 | 0.00 | 0.00 | 26 | 1012.0 |
| 20260508175401 | 72 | 304 | 2.0 | 10.0 | 0.00 | 0.00 | 0.00 | 26 | 1012.2 |
| 20260508174842 | 72 | 317 | 2.0 | 13.0 | 0.00 | 0.00 | 0.00 | 27 | 1012.2 |
| 20260508174329 | 71 | 334 | 2.0 | 13.0 | 0.00 | 0.00 | 0.00 | 26 | 1012.3 |
| 20260508173825 | 71 | 348 | 3.0 | 13.0 | 0.00 | 0.00 | 0.00 | 26 | 1012.3 |
| 20260508173328 | 71 | 354 | 4.0 | 13.0 | 0.00 | 0.00 | 0.00 | 27 | 1012.2 |
| 20260508172831 | 71 | 332 | 4.0 | 13.0 | 0.00 | 0.00 | 0.00 | 27 | 1012.2 |
| 20260508172324 | 71 | 299 | 5.0 | 13.0 | 0.00 | 0.00 | 0.00 | 29 | 1012.2 |
| 20260508171821 | 70 | 313 | 5.0 | 11.0 | 0.00 | 0.00 | 0.00 | 28 | 1012.1 |
| 20260508171311 | 71 | 341 | 3.0 | 11.0 | 0.00 | 0.00 | 0.00 | 28 | 1012.1 |
| 20260508170752 | 70 | 315 | 4.0 | 11.0 | 0.00 | 0.00 | 0.00 | 31 | 1012.1 |
| 20260508170256 | 70 | 342 | 4.0 | 11.0 | 0.00 | 0.00 | 0.00 | 30 | 1012.1 |
| 20260508165802 | 70 | 348 | 4.0 | 11.0 | 0.00 | 0.00 | 0.00 | 32 | 1012.1 |
| 20260508164042 | 69 | 358 | 4.0 | 8.0 | 0.00 | 0.00 | 0.00 | 33 | 1011.9 |
| 20260508163541 | 70 | 331 | 3.0 | 7.0 | 0.00 | 0.00 | 0.00 | 33 | 1011.9 |
| 20260508163051 | 70 | 346 | 3.0 | 8.0 | 0.00 | 0.00 | 0.00 | 36 | 1011.8 |
| 20260508162546 | 69 | 346 | 2.0 | 8.0 | 0.00 | 0.00 | 0.00 | 37 | 1011.8 |
| 20260508162047 | 69 | 322 | 2.0 | 8.0 | 0.00 | 0.00 | 0.00 | 37 | 1011.8 |
| 20260508160924 | 68 | 323 | 2.0 | 5.0 | 0.00 | 0.00 | 0.00 | 38 | 1011.8 |
| 20260508160412 | 68 | 0 | 1.0 | 5.0 | 0.00 | 0.00 | 0.00 | 37 | 1011.9 |
| 20260508155858 | 67 | 344 | 2.0 | 6.0 | 0.00 | 0.00 | 0.00 | 36 | 1011.9 |
| 20260508155344 | 67 | 336 | 1.0 | 6.0 | 0.00 | 0.00 | 0.00 | 36 | 1011.9 |
| 20260508154825 | 67 | 347 | 2.0 | 6.0 | 0.00 | 0.00 | 0.00 | 38 | 1011.9 |
| 20260508153015 | 66 | 328 | 0.0 | 2.0 | 0.00 | 0.00 | 0.00 | 40 | 1011.9 |
| 20260508151845 | 65 | 351 | 0.0 | 2.0 | 0.00 | 0.00 | 0.00 | 41 | 1011.8 |
| 20260508151339 | 65 | 337 | 0.0 | 0.0 | 0.00 | 0.00 | 0.00 | 42 | 1011.8 |
| 20260508150209 | 65 | 343 | 0.0 | 0.0 | 0.00 | 0.00 | 0.00 | 43 | 1011.8 |
| 20260508145719 | 65 | 303 | 0.0 | 0.0 | 0.00 | 0.00 | 0.00 | 44 | 1011.7 |
| 20260508145224 | 64 | 336 | 0.0 | 0.0 | 0.00 | 0.00 | 0.00 | 45 | 1011.7 |
| 20260508144732 | 63 | 339 | 0.0 | 0.0 | 0.00 | 0.00 | 0.00 | 46 | 1011.7 |
| 20260508144215 | 63 | 328 | 0.0 | 0.0 | 0.00 | 0.00 | 0.00 | 49 | 1011.7 |
| 20260508143708 | 62 | 332 | 0.0 | 0.0 | 0.00 | 0.00 | 0.00 | 49 | 1011.6 |
| 20260508143200 | 62 | 312 | 0.0 | 0.0 | 0.00 | 0.00 | 0.00 | 50 | 1011.6 |
| 20260508142026 | 61 | 51 | 0.0 | 0.0 | 0.00 | 0.00 | 0.00 | 52 | 1011.5 |
| 20260508140920 | 59 | 326 | 0.0 | 0.0 | 0.00 | 0.00 | 0.00 | 54 | 1011.4 |
| 20260508140429 | 58 | 339 | 0.0 | 0.0 | 0.00 | 0.00 | 0.00 | 54 | 1011.4 |
| 20260508135305 | 57 | 70 | 0.0 | 0.0 | 0.00 | 0.00 | 0.00 | 57 | 1011.4 |
| 20260508134805 | 56 | 70 | 0.0 | 0.0 | 0.00 | 0.00 | 0.00 | 58 | 1011.3 |
| 20260508134246 | 55 | 320 | 0.0 | 0.0 | 0.00 | 0.00 | 0.00 | 60 | 1011.3 |
| 20260508133749 | 54 | 278 | 0.0 | 0.0 | 0.00 | 0.00 | 0.00 | 62 | 1011.3 |
| 20260508133253 | 52 | 277 | 0.0 | 0.0 | 0.00 | 0.00 | 0.00 | 63 | 1011.2 |
| 20260508132734 | 51 | 277 | 0.0 | 0.0 | 0.00 | 0.00 | 0.00 | 64 | 1011.2 |
| 20260508132222 | 50 | 277 | 0.0 | 0.0 | 0.00 | 0.00 | 0.00 | 65 | 1011.2 |
| 20260508131721 | 50 | 277 | 0.0 | 0.0 | 0.00 | 0.00 | 0.00 | 65 | 1011.1 |
| 20260508131229 | 50 | 277 | 0.0 | 0.0 | 0.00 | 0.00 | 0.00 | 65 | 1011.1 |
| 20260508130727 | 50 | 277 | 0.0 | 0.0 | 0.00 | 0.00 | 0.00 | 65 | 1010.9 |
| 20260508130221 | 49 | 277 | 0.0 | 0.0 | 0.00 | 0.00 | 0.00 | 65 | 1010.9 |
| 20260508125724 | 49 | 277 | 0.0 | 0.0 | 0.00 | 0.00 | 0.00 | 65 | 1010.9 |
| 20260508125217 | 48 | 277 | 0.0 | 0.0 | 0.00 | 0.00 | 0.00 | 66 | 1010.8 |
| 20260508124705 | 48 | 279 | 0.0 | 0.0 | 0.00 | 0.00 | 0.00 | 67 | 1010.7 |
| 20260508123550 | 48 | 279 | 0.0 | 0.0 | 0.00 | 0.00 | 0.00 | 67 | 1010.5 |
| 20260508123058 | 48 | 279 | 0.0 | 0.0 | 0.00 | 0.00 | 0.00 | 67 | 1010.5 |
| 20260508122605 | 47 | 279 | 0.0 | 0.0 | 0.00 | 0.00 | 0.00 | 67 | 1010.4 |
| 20260508122051 | 47 | 279 | 0.0 | 0.0 | 0.00 | 0.00 | 0.00 | 68 | 1010.4 |
| 20260508121538 | 47 | 279 | 0.0 | 0.0 | 0.00 | 0.00 | 0.00 | 67 | 1010.4 |
| 20260508121021 | 48 | 279 | 0.0 | 0.0 | 0.00 | 0.00 | 0.00 | 67 | 1010.4 |
| 20260508120509 | 48 | 279 | 0.0 | 0.0 | 0.00 | 0.00 | 0.00 | 67 | 1010.4 |
| 20260508115343 | 48 | 279 | 0.0 | 0.0 | 0.00 | 0.00 | 0.00 | 66 | 1010.3 |
| 20260508114829 | 48 | 279 | 0.0 | 0.0 | 0.00 | 0.00 | 0.00 | 66 | 1010.3 |
| 20260508114319 | 49 | 279 | 0.0 | 0.0 | 0.00 | 0.00 | 0.00 | 65 | 1010.3 |
| 20260508113810 | 49 | 279 | 0.0 | 0.0 | 0.00 | 0.00 | 0.00 | 65 | 1010.2 |
| 20260508113305 | 49 | 279 | 0.0 | 0.0 | 0.00 | 0.00 | 0.00 | 65 | 1010.2 |
| 20260508112803 | 49 | 279 | 0.0 | 0.0 | 0.00 | 0.00 | 0.00 | 66 | 1010.2 |
| 20260508112310 | 49 | 279 | 0.0 | 0.0 | 0.00 | 0.00 | 0.00 | 66 | 1010.2 |
| 20260508111800 | 49 | 280 | 0.0 | 0.0 | 0.00 | 0.00 | 0.00 | 65 | 1010.2 |
| 20260508111302 | 49 | 280 | 0.0 | 0.0 | 0.00 | 0.00 | 0.00 | 65 | 1010.3 |
| 20260508110810 | 49 | 279 | 0.0 | 0.0 | 0.00 | 0.00 | 0.00 | 66 | 1010.2 |
| 20260508110303 | 49 | 279 | 0.0 | 0.0 | 0.00 | 0.00 | 0.00 | 67 | 1010.0 |
| 20260508105806 | 48 | 279 | 0.0 | 0.0 | 0.00 | 0.00 | 0.00 | 67 | 1010.1 |
| 20260508105251 | 48 | 279 | 0.0 | 0.0 | 0.00 | 0.00 | 0.00 | 67 | 1010.2 |
| 20260508104758 | 48 | 279 | 0.0 | 0.0 | 0.00 | 0.00 | 0.00 | 67 | 1010.1 |
| 20260508104257 | 48 | 279 | 0.0 | 0.0 | 0.00 | 0.00 | 0.00 | 66 | 1010.1 |
| 20260508103743 | 49 | 279 | 0.0 | 0.0 | 0.00 | 0.00 | 0.00 | 66 | 1010.1 |
| 20260508102629 | 49 | 279 | 0.0 | 0.0 | 0.00 | 0.00 | 0.00 | 64 | 1009.9 |
| 20260508102130 | 49 | 279 | 0.0 | 0.0 | 0.00 | 0.00 | 0.00 | 64 | 1009.8 |
| 20260508101632 | 49 | 279 | 0.0 | 0.0 | 0.00 | 0.00 | 0.00 | 64 | 1009.8 |